Location: Orinda
(37.8771°N, 122.1797°W)
Time: 10:54:50
(UTC+00:00)

GP-B - Pass Details

Date: 21 October 2019
Orbit: 632 x 635 km, 89.8° (Epoch: 13 November)

Event Time Altitude Azimuth Distance (km) Brightness Sun altitude
Rises 12:45:28 0° 168° (SSE) 2,916 6.7 -19.9°
Reaches altitude 10° 12:47:42 10° 164° (SSE) 2,012 5.8 -19.5°
Maximum altitude 12:52:03 60° 85° (E) 728 3.7 -18.6°
Drops below altitude 10° 12:56:26 10° 6° (N) 2,025 5.8 -17.8°
Sets 12:58:41 0° 3° (N) 2,938 6.6 -17.3°
